Погода в Быковке

Россия / Белгородская область     50°48′08″N   36°25′50″E
темп.,
°C
ветер,
м/с
пор.,
м/с
влажн.,
%
обл.,
%
осадки,
мм/ч
давл.,
гПа
погр.,
м
15 апреля, чт
чт1500:00+11ссз1185100 0.3 101312
03:00+9юз36945 0.5 1014147
06:00+7юз36928 0.0 1014150
09:00+11ю456993 0.0 1014568
12:00+14ююв455590 0.0 10131362
15:00+14ююв565490 0.1 10131580
18:00+12ююв5769100 0.8 1012595
21:00+9юв378944 3.7 1012438
16 апреля, пт
пт1600:00+7ююв37905 0.1 1013275
03:00+7вюв378985 0.1 1014249
06:00+7юв489278 0.2 1014427
09:00+9ююв578078 0.2 1015731
12:00+9ююв6775100 0.3 10161052
15:00+10ю576591 0.4 1017904
18:00+11ююв466782 0.4 1016671
21:00+8ююв37825 0.6 1017142
17 апреля, сб
сб1700:00+6ю239290 0.3 101850
03:00+6юв2288100 0.3 101837
06:00+5зюз119093 0.0 101910
09:00+8ююз117764 0.0 1019507
12:00+11зюз445986 0.4 10181301
15:00+12зюз665676 1.2 10191437
18:00+11з4555100 0.1 10191154
21:00+8з477399 0.1 1020200
18 апреля, вс
вс1800:00+6зюз488298 0.0 1020345
03:00+6зюз397997 0.0 1019323
06:00+5зюз5128689 0.0 1017381
09:00+6з71388100 1.4 1016640
12:00+8зсз5886100 0.3 1016714
15:00+8с797658 0.4 1017862
18:00+7ссв61074100 0.0 10191101
21:00+7ссв398441 0.0 1020585
19 апреля, пн
пн1900:00+5ссв49937 0.0 1020209
03:00+4ссв38966 0.0 1020171
06:00+5св5990100 0.0 1020457
09:00+6св6879100 0.0 1021736
12:00+8всв5771100 0.0 10211066
15:00+10св5872100 0.0 10211182
18:00+10всв6107283 0.0 1020921
21:00+7всв7128795 0.0 1021716